Voltar ao catálogo

THOR ABLESTAR DEB

AtivoLEO
NORAD 123·DEBRIS·🇺🇸 United States

Lançado Jun 29, 1961 de Cape Canaveral Space Force Station

Loading…

Próximas Passagens (próximas 24 horas)

TLE

AtualizadoSource: Space-Track

Época: Sep 8, 2026, 12:07 UTC

1 00123U 61015H   26251.50519915  .00000191  00000-0  81427-4 0  9997
2 00123  66.6855 205.6220 0112697 211.2017 148.2365 14.41779492391540

Acompanhe THOR ABLESTAR DEB em tempo real com AllMySat

Download on the App Store